Overview Statistics Trail Chart Weather Telemetry Raw packets
 

This is the latest recevied weather packets stored in our database for station/object K0QED. If no packets are shown the sender has not sent any weather packets the latest 10 day(s).

<< 85 86 87 88 89 90 91 >>
Time Temp. Humidity Pressure Rain* Wind** Luminosity Snow
1787997536 16.11° C 56% 1027.5 hPa 0 mm - 0 W/m² -
1787997236 16.11° C 58% 1027.2 hPa 0 mm - 0 W/m² -
1787996936 16.11° C 57% 1027.7 hPa 0 mm - 0 W/m² -
1787996631 16.11° C 57% 1027.5 hPa 0 mm - 0 W/m² -
1787996326 15.56° C 57% 1027.6 hPa 0 mm - 0 W/m² -
1787996026 15.56° C 58% 1027.5 hPa 0 mm - 0 W/m² -
1787995721 15.56° C 57% 1027.2 hPa 0 mm - 0 W/m² -
1787995417 16.11° C 56% 1027.2 hPa 0 mm - 0 W/m² -
1787995113 15.56° C 57% 1027.4 hPa 0 mm - 0 W/m² -
1787994808 16.11° C 56% 1027.2 hPa 0 mm - 0 W/m² -
1787994505 16.11° C 56% 1027.9 hPa 0 mm - 0 W/m² -
1787994200 15.56° C 58% 1027.2 hPa 0 mm - 0 W/m² -
1787993899 15.56° C 58% 1027.5 hPa 0 mm - 0 W/m² -
1787993593 15.56° C 57% 1027.7 hPa 0 mm - 0 W/m² -
1787993289 16.11° C 56% 1027.4 hPa 0 mm - 0 W/m² -
1787992983 16.67° C 54% 1027.6 hPa 0 mm - 0 W/m² -
1787992678 16.67° C 55% 1027.5 hPa 0 mm - 0 W/m² -
1787992373 16.11° C 57% 1027.5 hPa 0 mm - 0 W/m² -
1787992077 15.56° C 57% 1027.6 hPa 0 mm - 0 W/m² -
1787991771 16.11° C 56% 1027.6 hPa 0 mm - 0 W/m² -
1787991466 16.11° C 56% 1027.7 hPa 0 mm - 0 W/m² -
1787991163 15.56° C 58% 1027.9 hPa 0 mm - 0 W/m² -
1787990857 15.56° C 59% 1028 hPa 0 mm - 0 W/m² -
1787990553 15.56° C 63% 1027.7 hPa 0 mm - 0 W/m² -
1787990250 15.56° C 59% 1027.9 hPa 0 mm - 0 W/m² -

* Rain latest hour (hover to see other rain measurements)
** Current wind speed in m/s (hover to see current wind gust speed)